QPF
0.02 0.02 0.01 0.01 0.01 0.00 0.00 0.00 0.00 0.00 0.00 0.00 0.00 0.00 0.00 0.00 0.00 0.00 0.01 0.01 0.01 0.03 0.02 0.01 0.00 0.00 0.00 0.00 0.00 0.00 0.01 0.01 0.00 0.01 0.02 0.05 0.10 0.12 0.13 0.10 0.06 0.03 0.02 0.01
0.02 0.01 0.01 0.01 0.01 0.01 0.01 0.01 0.00 0.00 0.00 0.00 0.00 0.00 0.00 0.00 0.00 0.00 0.01 0.01 0.01 0.01 0.02 0.02 0.01 0.00 0.00 0.00 0.00 0.01 0.02 0.02 0.01 0.01 0.01 0.03 0.07 0.09 0.11 0.10 0.08 0.05 0.03 0.02
0.01 0.00 0.00 0.01 0.01 0.01 0.01 0.01 0.01 0.00 0.00 0.00 0.00 0.00 0.00 0.00 0.00 0.00 0.01 0.01 0.01 0.01 0.01 0.02 0.01 0.01 0.00 0.00 0.00 0.01 0.01 0.01 0.01 0.01 0.02 0.03 0.04 0.06 0.08 0.08 0.07 0.05 0.04 0.02
0.01 0.00 0.00 0.01 0.01 0.01 0.01 0.00 0.01 0.01 0.01 0.01 0.00 0.00 0.00 0.00 0.00 0.00 0.00 0.01 0.01 0.01 0.01 0.01 0.01 0.01 0.00 0.00 0.01 0.01 0.00 0.01 0.02 0.02 0.03 0.02 0.03 0.04 0.06 0.07 0.05 0.04 0.03 0.02
0.02 0.01 0.01 0.01 0.00 0.01 0.01 0.00 0.01 0.01 0.01 0.02 0.01 0.01 0.00 0.00 0.00 0.00 0.00 0.00 0.00 0.00 0.01 0.01 0.01 0.01 0.01 0.01 0.01 0.02 0.01 0.02 0.02 0.03 0.02 0.01 0.01 0.02 0.03 0.04 0.04 0.04 0.03 0.02
0.02 0.02 0.02 0.01 0.01 0.01 0.01 0.02 0.02 0.02 0.03 0.03 0.01 0.00 0.00 0.00 0.00 0.00 0.00 0.00 0.00 0.00 0.01 0.02 0.02 0.01 0.01 0.02 0.02 0.02 0.03 0.04 0.02 0.02 0.02 0.01 0.01 0.01 0.02 0.02 0.04 0.05 0.04 0.02
0.02 0.02 0.02 0.01 0.01 0.02 0.03 0.05 0.06 0.06 0.06 0.02 0.00 0.00 0.00 0.00 0.00 0.00 0.00 0.00 0.00 0.00 0.01 0.01 0.02 0.02 0.02 0.02 0.02 0.02 0.03 0.04 0.03 0.02 0.02 0.01 0.01 0.01 0.01 0.01 0.02 0.03 0.04 0.03
0.02 0.02 0.02 0.02 0.02 0.02 0.03 0.04 0.05 0.03 0.02 0.01 0.00 0.00 0.00 0.00 0.00 0.00 0.00 0.00 0.00 0.00 0.01 0.01 0.02 0.03 0.03 0.03 0.02 0.02 0.02 0.03 0.04 0.03 0.02 0.02 0.02 0.02 0.02 0.01 0.01 0.02 0.02 0.03
0.03 0.02 0.01 0.02 0.02 0.01 0.02 0.03 0.03 0.03 0.02 0.01 0.00 0.00 0.01 0.00 0.00 0.00 0.00 0.00 0.00 0.00 0.01 0.01 0.01 0.02 0.02 0.03 0.03 0.03 0.02 0.03 0.04 0.04 0.04 0.03 0.02 0.02 0.02 0.02 0.01 0.01 0.01 0.02
0.03 0.02 0.01 0.01 0.02 0.02 0.02 0.02 0.04 0.07 0.05 0.02 0.01 0.01 0.01 0.01 0.00 0.00 0.00 0.00 0.00 0.00 0.00 0.01 0.01 0.01 0.01 0.02 0.03 0.03 0.02 0.03 0.04 0.04 0.05 0.04 0.02 0.02 0.02 0.02 0.02 0.02 0.02 0.01
0.03 0.03 0.01 0.01 0.02 0.03 0.03 0.04 0.05 0.06 0.05 0.02 0.01 0.01 0.00 0.00 0.01 0.01 0.00 0.00 0.00 0.00 0.00 0.00 0.00 0.01 0.01 0.01 0.02 0.01 0.02 0.02 0.02 0.02 0.02 0.03 0.02 0.02 0.02 0.02 0.02 0.03 0.03 0.01
0.02 0.04 0.02 0.01 0.01 0.02 0.03 0.03 0.04 0.06 0.04 0.02 0.01 0.00 0.00 0.00 0.01 0.01 0.00 0.00 0.00 0.00 0.01 0.01 0.01 0.01 0.00 0.01 0.01 0.01 0.01 0.01 0.01 0.01 0.01 0.00 0.00 0.01 0.01 0.01 0.01 0.02 0.03 0.01
0.04 0.06 0.04 0.02 0.02 0.02 0.04 0.04 0.04 0.05 0.04 0.03 0.02 0.01 0.00 0.00 0.01 0.01 0.01 0.00 0.00 0.00 0.01 0.01 0.01 0.00 0.00 0.00 0.00 0.00 0.00 0.00 0.00 0.00 0.00 0.00 0.00 0.01 0.01 0.01 0.01 0.01 0.01 0.01
0.05 0.07 0.04 0.03 0.02 0.02 0.03 0.03 0.03 0.04 0.05 0.03 0.02 0.01 0.01 0.01 0.01 0.01 0.01 0.01 0.00 0.00 0.01 0.01 0.00 0.01 0.00 0.00 0.00 0.00 0.00 0.00 0.00 0.00 0.00 0.00 0.00 0.00 0.01 0.01 0.01 0.01 0.00 0.00
0.02 0.03 0.02 0.01 0.01 0.02 0.02 0.02 0.02 0.03 0.03 0.03 0.02 0.01 0.01 0.01 0.01 0.01 0.01 0.01 0.00 0.00 0.01 0.01 0.01 0.01 0.01 0.01 0.00 0.00 0.00 0.00 0.00 0.00 0.00 0.00 0.00 0.01 0.00 0.01 0.02 0.03 0.02 0.01
0.02 0.02 0.01 0.01 0.01 0.02 0.02 0.01 0.01 0.02 0.02 0.02 0.01 0.01 0.01 0.01 0.01 0.01 0.01 0.01 0.01 0.01 0.01 0.01 0.01 0.01 0.01 0.01 0.01 0.01 0.00 0.00 0.01 0.01 0.00 0.01 0.01 0.01 0.01 0.01 0.01 0.03 0.04 0.04
0.02 0.02 0.02 0.01 0.00 0.01 0.03 0.03 0.02 0.02 0.02 0.02 0.02 0.02 0.02 0.01 0.01 0.01 0.01 0.01 0.01 0.01 0.01 0.01 0.01 0.01 0.01 0.01 0.01 0.01 0.01 0.00 0.01 0.01 0.01 0.01 0.01 0.01 0.01 0.01 0.01 0.03 0.03 0.04
0.02 0.02 0.02 0.01 0.01 0.03 0.04 0.03 0.03 0.03 0.03 0.02 0.02 0.02 0.02 0.01 0.01 0.01 0.01 0.01 0.01 0.01 0.01 0.01 0.01 0.01 0.01 0.01 0.01 0.01 0.01 0.01 0.01 0.01 0.01 0.02 0.02 0.02 0.01 0.02 0.02 0.03 0.03 0.04
0.02 0.02 0.03 0.03 0.03 0.02 0.02 0.02 0.03 0.03 0.02 0.02 0.01 0.01 0.01 0.01 0.01 0.01 0.01 0.01 0.01 0.01 0.01 0.01 0.01 0.01 0.02 0.03 0.01 0.02 0.02 0.01 0.02 0.02 0.02 0.03 0.03 0.02 0.01 0.02 0.02 0.02 0.04 0.05
0.02 0.02 0.04 0.04 0.04 0.03 0.03 0.02 0.03 0.03 0.03 0.02 0.02 0.02 0.01 0.01 0.01 0.01 0.01 0.01 0.01 0.01 0.01 0.01 0.02 0.02 0.03 0.02 0.02 0.03 0.02 0.03 0.03 0.03 0.03 0.02 0.02 0.02 0.02 0.02 0.02 0.03 0.04 0.05
0.04 0.04 0.04 0.04 0.04 0.03 0.03 0.02 0.02 0.04 0.05 0.03 0.02 0.02 0.02 0.03 0.03 0.02 0.01 0.01 0.01 0.01 0.01 0.01 0.02 0.02 0.02 0.02 0.02 0.04 0.03 0.04 0.04 0.04 0.04 0.03 0.01 0.01 0.02 0.02 0.02 0.02 0.02 0.03
0.06 0.06 0.05 0.05 0.05 0.05 0.04 0.03 0.05 0.06 0.04 0.03 0.03 0.03 0.04 0.03 0.02 0.02 0.02 0.02 0.02 0.02 0.01 0.02 0.02 0.02 0.02 0.02 0.02 0.04 0.04 0.03 0.03 0.04 0.04 0.03 0.03 0.02 0.02 0.01 0.01 0.02 0.02 0.02
0.06 0.06 0.06 0.06 0.08 0.07 0.05 0.05 0.05 0.04 0.04 0.04 0.04 0.04 0.04 0.03 0.03 0.02 0.02 0.02 0.03 0.02 0.02 0.02 0.02 0.02 0.01 0.01 0.01 0.03 0.04 0.03 0.03 0.04 0.04 0.03 0.04 0.03 0.02 0.01 0.01 0.01 0.02 0.02
0.04 0.03 0.04 0.05 0.05 0.05 0.04 0.03 0.02 0.03 0.04 0.04 0.04 0.04 0.03 0.03 0.03 0.03 0.03 0.03 0.03 0.03 0.03 0.03 0.02 0.02 0.01 0.01 0.01 0.01 0.03 0.03 0.04 0.03 0.03 0.03 0.03 0.03 0.02 0.01 0.01 0.02 0.02 0.02
0.03 0.02 0.03 0.04 0.03 0.03 0.03 0.02 0.02 0.02 0.02 0.02 0.03 0.03 0.03 0.03 0.03 0.03 0.03 0.03 0.03 0.04 0.04 0.04 0.03 0.03 0.02 0.02 0.01 0.02 0.02 0.03 0.03 0.03 0.02 0.02 0.03 0.03 0.03 0.02 0.02 0.02 0.02 0.03
0.04 0.04 0.04 0.03 0.03 0.03 0.03 0.03 0.02 0.02 0.02 0.02 0.02 0.02 0.03 0.03 0.04 0.03 0.04 0.04 0.03 0.04 0.03 0.03 0.03 0.03 0.03 0.03 0.03 0.03 0.03 0.04 0.05 0.05 0.03 0.02 0.03 0.04 0.04 0.03 0.03 0.04 0.03 0.03
MSLP
1014.63 1014.38 1014.06 1013.73 1013.46 1013.29 1013.24 1013.28 1013.36 1013.40 1013.35 1013.15 1012.80 1012.32 1011.78 1011.26 1010.84 1010.61 1010.61 1010.82 1011.23 1011.76 1012.33 1012.88 1013.33 1013.66 1013.87 1013.97 1014.01 1014.01 1014.02 1014.05 1014.09 1014.15 1014.19 1014.20 1014.17 1014.10 1013.99 1013.88 1013.78 1013.70 1013.67 1013.68
1014.28 1014.00 1013.67 1013.35 1013.11 1012.98 1012.98 1013.06 1013.16 1013.21 1013.11 1012.84 1012.39 1011.79 1011.12 1010.49 1010.00 1009.73 1009.72 1009.96 1010.44 1011.06 1011.73 1012.38 1012.93 1013.34 1013.61 1013.77 1013.84 1013.87 1013.90 1013.93 1013.97 1014.01 1014.04 1014.02 1013.96 1013.86 1013.73 1013.60 1013.49 1013.43 1013.42 1013.48
1013.73 1013.45 1013.14 1012.87 1012.70 1012.66 1012.74 1012.89 1013.04 1013.09 1012.96 1012.62 1012.06 1011.34 1010.56 1009.81 1009.24 1008.91 1008.88 1009.16 1009.68 1010.37 1011.13 1011.86 1012.49 1012.98 1013.31 1013.51 1013.61 1013.66 1013.70 1013.74 1013.78 1013.81 1013.82 1013.78 1013.70 1013.56 1013.40 1013.24 1013.12 1013.05 1013.06 1013.14
1013.00 1012.73 1012.47 1012.26 1012.19 1012.25 1012.44 1012.68 1012.88 1012.95 1012.81 1012.41 1011.78 1010.96 1010.07 1009.24 1008.59 1008.22 1008.18 1008.46 1009.02 1009.76 1010.58 1011.37 1012.06 1012.60 1012.97 1013.20 1013.32 1013.39 1013.43 1013.47 1013.51 1013.54 1013.54 1013.49 1013.39 1013.23 1013.05 1012.86 1012.71 1012.63 1012.62 1012.71
1012.18 1011.92 1011.68 1011.54 1011.55 1011.72 1012.00 1012.33 1012.59 1012.69 1012.55 1012.13 1011.45 1010.57 1009.63 1008.75 1008.06 1007.67 1007.63 1007.93 1008.51 1009.28 1010.14 1010.97 1011.68 1012.24 1012.63 1012.87 1013.00 1013.07 1013.11 1013.15 1013.20 1013.23 1013.23 1013.18 1013.08 1012.91 1012.71 1012.51 1012.34 1012.23 1012.20 1012.27
1011.44 1011.14 1010.89 1010.78 1010.83 1011.05 1011.39 1011.78 1012.08 1012.21 1012.08 1011.66 1010.98 1010.10 1009.16 1008.28 1007.62 1007.25 1007.23 1007.56 1008.17 1008.96 1009.84 1010.67 1011.39 1011.95 1012.33 1012.56 1012.68 1012.74 1012.78 1012.82 1012.87 1012.91 1012.92 1012.89 1012.80 1012.64 1012.45 1012.25 1012.06 1011.93 1011.88 1011.91
1010.95 1010.55 1010.23 1010.07 1010.10 1010.30 1010.64 1011.02 1011.33 1011.47 1011.35 1010.95 1010.30 1009.48 1008.59 1007.79 1007.19 1006.90 1006.95 1007.32 1007.97 1008.79 1009.67 1010.50 1011.21 1011.75 1012.11 1012.32 1012.42 1012.46 1012.49 1012.52 1012.57 1012.62 1012.66 1012.65 1012.58 1012.46 1012.29 1012.10 1011.92 1011.78 1011.70 1011.70
1010.86 1010.31 1009.85 1009.56 1009.48 1009.58 1009.83 1010.14 1010.39 1010.49 1010.36 1009.99 1009.40 1008.66 1007.89 1007.21 1006.75 1006.57 1006.72 1007.17 1007.87 1008.71 1009.60 1010.42 1011.11 1011.63 1011.97 1012.15 1012.23 1012.26 1012.27 1012.30 1012.35 1012.41 1012.46 1012.48 1012.45 1012.36 1012.23 1012.08 1011.92 1011.78 1011.70 1011.67
1011.26 1010.50 1009.85 1009.37 1009.09 1009.02 1009.09 1009.24 1009.36 1009.38 1009.21 1008.85 1008.33 1007.70 1007.07 1006.56 1006.25 1006.23 1006.50 1007.04 1007.80 1008.67 1009.56 1010.38 1011.06 1011.55 1011.88 1012.06 1012.13 1012.15 1012.15 1012.17 1012.22 1012.29 1012.35 1012.39 1012.40 1012.36 1012.27 1012.16 1012.04 1011.93 1011.85 1011.82
1012.12 1011.16 1010.29 1009.58 1009.06 1008.73 1008.56 1008.49 1008.42 1008.29 1008.05 1007.68 1007.21 1006.69 1006.22 1005.87 1005.74 1005.87 1006.26 1006.90 1007.71 1008.61 1009.51 1010.32 1010.98 1011.48 1011.80 1011.99 1012.07 1012.10 1012.12 1012.14 1012.19 1012.26 1012.33 1012.39 1012.42 1012.42 1012.38 1012.32 1012.25 1012.18 1012.13 1012.10
1013.35 1012.21 1011.14 1010.19 1009.42 1008.82 1008.38 1008.04 1007.74 1007.44 1007.08 1006.67 1006.23 1005.80 1005.46 1005.27 1005.29 1005.54 1006.04 1006.74 1007.58 1008.48 1009.37 1010.17 1010.83 1011.34 1011.69 1011.90 1012.03 1012.09 1012.14 1012.18 1012.24 1012.31 1012.38 1012.44 1012.49 1012.51 1012.52 1012.51 1012.49 1012.47 1012.46 1012.47
1014.73 1013.48 1012.27 1011.15 1010.15 1009.30 1008.59 1007.99 1007.46 1006.96 1006.48 1006.01 1005.57 1005.21 1004.96 1004.88 1005.00 1005.34 1005.89 1006.60 1007.42 1008.30 1009.15 1009.92 1010.57 1011.09 1011.48 1011.75 1011.94 1012.08 1012.18 1012.26 1012.34 1012.42 1012.49 1012.55 1012.60 1012.63 1012.66 1012.69 1012.72 1012.76 1012.80 1012.85
1016.07 1014.81 1013.54 1012.31 1011.17 1010.13 1009.19 1008.37 1007.63 1006.96 1006.36 1005.83 1005.38 1005.04 1004.85 1004.83 1005.00 1005.36 1005.89 1006.55 1007.30 1008.08 1008.85 1009.57 1010.19 1010.72 1011.16 1011.51 1011.79 1012.01 1012.19 1012.35 1012.47 1012.57 1012.64 1012.69 1012.74 1012.77 1012.81 1012.87 1012.94 1013.02 1013.12 1013.21
1017.19 1016.01 1014.78 1013.54 1012.33 1011.18 1010.11 1009.12 1008.24 1007.44 1006.75 1006.16 1005.70 1005.37 1005.20 1005.20 1005.36 1005.67 1006.11 1006.66 1007.27 1007.91 1008.55 1009.16 1009.74 1010.26 1010.74 1011.16 1011.55 1011.88 1012.17 1012.41 1012.60 1012.73 1012.82 1012.87 1012.90 1012.93 1012.97 1013.04 1013.13 1013.25 1013.39 1013.52
1017.99 1016.96 1015.84 1014.68 1013.49 1012.32 1011.20 1010.14 1009.17 1008.31 1007.57 1006.97 1006.50 1006.18 1006.01 1005.98 1006.08 1006.29 1006.59 1006.96 1007.38 1007.82 1008.29 1008.77 1009.26 1009.75 1010.25 1010.75 1011.23 1011.69 1012.10 1012.44 1012.71 1012.90 1013.02 1013.08 1013.11 1013.13 1013.16 1013.22 1013.32 1013.46 1013.62 1013.79
1018.43 1017.59 1016.64 1015.60 1014.51 1013.39 1012.29 1011.24 1010.28 1009.42 1008.69 1008.10 1007.65 1007.35 1007.16 1007.09 1007.10 1007.18 1007.31 1007.46 1007.65 1007.87 1008.13 1008.44 1008.81 1009.25 1009.75 1010.30 1010.88 1011.45 1011.98 1012.44 1012.80 1013.07 1013.23 1013.32 1013.35 1013.37 1013.39 1013.44 1013.54 1013.67 1013.84 1014.02
1018.53 1017.88 1017.10 1016.22 1015.26 1014.26 1013.24 1012.26 1011.36 1010.56 1009.89 1009.36 1008.96 1008.68 1008.50 1008.38 1008.30 1008.24 1008.18 1008.11 1008.06 1008.04 1008.08 1008.21 1008.46 1008.82 1009.30 1009.88 1010.53 1011.20 1011.84 1012.41 1012.87 1013.22 1013.45 1013.58 1013.63 1013.65 1013.66 1013.70 1013.78 1013.90 1014.06 1014.23
1018.37 1017.87 1017.24 1016.51 1015.69 1014.80 1013.91 1013.04 1012.24 1011.55 1010.98 1010.54 1010.21 1009.97 1009.80 1009.65 1009.49 1009.30 1009.07 1008.81 1008.55 1008.31 1008.15 1008.11 1008.22 1008.50 1008.94 1009.53 1010.22 1010.96 1011.69 1012.36 1012.93 1013.36 1013.66 1013.84 1013.93 1013.96 1013.97 1014.00 1014.05 1014.15 1014.27 1014.41
1018.01 1017.61 1017.09 1016.47 1015.77 1015.00 1014.23 1013.49 1012.81 1012.24 1011.79 1011.44 1011.20 1011.02 1010.87 1010.71 1010.50 1010.22 1009.86 1009.45 1009.02 1008.62 1008.30 1008.12 1008.11 1008.31 1008.71 1009.29 1010.00 1010.78 1011.58 1012.32 1012.96 1013.47 1013.84 1014.08 1014.21 1014.26 1014.28 1014.30 1014.34 1014.40 1014.49 1014.59
1017.53 1017.17 1016.71 1016.16 1015.55 1014.89 1014.22 1013.59 1013.04 1012.59 1012.24 1011.99 1011.83 1011.71 1011.59 1011.43 1011.19 1010.86 1010.43 1009.93 1009.40 1008.89 1008.48 1008.21 1008.13 1008.27 1008.63 1009.18 1009.89 1010.69 1011.51 1012.29 1012.99 1013.55 1013.98 1014.27 1014.44 1014.53 1014.57 1014.58 1014.60 1014.64 1014.68 1014.74
1016.98 1016.62 1016.18 1015.67 1015.11 1014.53 1013.95 1013.42 1012.96 1012.61 1012.35 1012.18 1012.08 1012.00 1011.91 1011.76 1011.52 1011.17 1010.72 1010.20 1009.64 1009.11 1008.66 1008.37 1008.26 1008.37 1008.70 1009.23 1009.92 1010.70 1011.52 1012.31 1013.02 1013.62 1014.08 1014.41 1014.62 1014.74 1014.79 1014.81 1014.82 1014.83 1014.85 1014.86
1016.42 1016.03 1015.59 1015.10 1014.57 1014.04 1013.53 1013.08 1012.70 1012.41 1012.21 1012.09 1012.02 1011.96 1011.89 1011.75 1011.52 1011.19 1010.76 1010.27 1009.75 1009.26 1008.86 1008.59 1008.51 1008.63 1008.95 1009.46 1010.11 1010.86 1011.64 1012.40 1013.10 1013.69 1014.15 1014.50 1014.74 1014.88 1014.95 1014.98 1014.99 1014.99 1014.97 1014.96
1015.89 1015.48 1015.03 1014.55 1014.05 1013.56 1013.11 1012.70 1012.37 1012.13 1011.95 1011.85 1011.78 1011.72 1011.64 1011.51 1011.30 1011.00 1010.63 1010.22 1009.79 1009.40 1009.09 1008.91 1008.89 1009.05 1009.38 1009.87 1010.49 1011.18 1011.90 1012.60 1013.24 1013.79 1014.23 1014.57 1014.81 1014.96 1015.05 1015.09 1015.10 1015.09 1015.06 1015.02
1015.46 1015.04 1014.59 1014.13 1013.66 1013.21 1012.80 1012.44 1012.14 1011.91 1011.74 1011.62 1011.53 1011.44 1011.34 1011.20 1011.00 1010.75 1010.46 1010.15 1009.84 1009.58 1009.40 1009.34 1009.42 1009.64 1010.00 1010.48 1011.05 1011.68 1012.31 1012.93 1013.48 1013.96 1014.35 1014.66 1014.88 1015.02 1015.12 1015.16 1015.17 1015.16 1015.12 1015.07
1015.20 1014.79 1014.36 1013.92 1013.50 1013.09 1012.71 1012.38 1012.10 1011.87 1011.68 1011.53 1011.40 1011.27 1011.14 1010.98 1010.80 1010.59 1010.38 1010.17 1010.00 1009.89 1009.86 1009.94 1010.12 1010.41 1010.81 1011.28 1011.80 1012.34 1012.88 1013.39 1013.84 1014.23 1014.54 1014.79 1014.97 1015.10 1015.17 1015.22 1015.22 1015.21 1015.16 1015.10
1015.19 1014.81 1014.41 1014.01 1013.61 1013.24 1012.90 1012.59 1012.32 1012.08 1011.87 1011.68 1011.51 1011.34 1011.16 1010.99 1010.81 1010.64 1010.50 1010.40 1010.36 1010.39 1010.50 1010.70 1010.99 1011.35 1011.77 1012.22 1012.69 1013.15 1013.58 1013.97 1014.31 1014.59 1014.81 1014.98 1015.11 1015.20 1015.26 1015.28 1015.28 1015.25 1015.19 1015.12
Thickness
5560 5562 5571 5580 5581 5585 5586 5587 5591 5593 5589 5589 5598 5606 5612 5613 5613 5617 5620 5622 5624 5626 5626 5625 5624 5623 5622 5622 5622 5621 5619 5618 5616 5616 5615 5614 5614 5614 5613 5612 5613 5614 5615 5615
5549 5557 5571 5570 5566 5566 5569 5574 5581 5581 5577 5580 5589 5597 5605 5606 5608 5612 5614 5617 5618 5619 5619 5618 5617 5617 5616 5616 5616 5615 5614 5613 5611 5611 5610 5609 5608 5607 5607 5605 5605 5606 5607 5608
5546 5557 5556 5553 5553 5554 5559 5564 5571 5568 5565 5567 5573 5591 5599 5602 5601 5603 5606 5609 5610 5611 5612 5612 5610 5610 5610 5610 5610 5609 5608 5607 5606 5604 5603 5602 5601 5600 5600 5599 5599 5599 5600 5601
5532 5540 5538 5541 5545 5548 5553 5557 5556 5553 5556 5564 5565 5579 5601 5599 5596 5597 5600 5601 5603 5603 5604 5604 5604 5603 5603 5604 5603 5602 5602 5601 5600 5599 5598 5599 5598 5598 5596 5594 5593 5593 5593 5593
5522 5525 5526 5530 5538 5539 5544 5543 5543 5543 5546 5549 5556 5561 5591 5590 5591 5595 5595 5595 5595 5595 5596 5597 5597 5597 5596 5596 5595 5595 5595 5594 5594 5593 5593 5593 5592 5592 5590 5588 5587 5587 5586 5586
5508 5510 5514 5521 5524 5525 5526 5528 5528 5531 5532 5538 5559 5558 5581 5587 5590 5591 5588 5587 5586 5586 5587 5588 5589 5588 5588 5588 5587 5588 5588 5588 5587 5587 5587 5587 5587 5585 5584 5582 5582 5581 5580 5580
5492 5497 5499 5503 5509 5510 5515 5520 5521 5522 5525 5545 5555 5553 5570 5578 5577 5578 5578 5578 5578 5578 5579 5579 5580 5580 5580 5579 5580 5580 5581 5581 5581 5581 5581 5580 5580 5579 5578 5577 5576 5575 5574 5574
5480 5488 5488 5490 5498 5502 5508 5515 5523 5528 5538 5546 5538 5546 5562 5561 5561 5562 5564 5566 5567 5569 5570 5570 5571 5571 5571 5571 5572 5572 5573 5574 5573 5573 5573 5572 5572 5571 5571 5571 5571 5570 5569 5569
5467 5474 5475 5477 5482 5491 5496 5502 5512 5515 5520 5527 5538 5540 5542 5545 5548 5550 5552 5554 5556 5558 5559 5560 5561 5562 5562 5563 5563 5565 5566 5566 5566 5566 5565 5565 5564 5564 5564 5564 5563 5562 5561 5561
5448 5454 5463 5464 5469 5473 5484 5493 5491 5497 5506 5518 5532 5534 5542 5540 5542 5543 5543 5545 5546 5547 5548 5550 5551 5551 5552 5553 5554 5555 5557 5558 5558 5557 5557 5557 5556 5556 5556 5555 5555 5555 5554 5553
5429 5436 5445 5450 5455 5464 5465 5471 5480 5490 5499 5511 5519 5529 5530 5533 5533 5532 5533 5534 5536 5536 5537 5539 5540 5541 5541 5543 5544 5545 5547 5548 5548 5548 5548 5548 5548 5548 5547 5547 5547 5546 5545 5545
5417 5424 5433 5442 5446 5449 5455 5462 5469 5474 5480 5489 5506 5514 5513 5516 5516 5517 5518 5520 5522 5524 5525 5527 5528 5529 5530 5531 5533 5535 5537 5538 5539 5539 5539 5539 5539 5539 5539 5539 5538 5537 5537 5536
5402 5408 5418 5431 5431 5431 5435 5442 5448 5456 5465 5476 5485 5497 5497 5498 5499 5501 5503 5507 5509 5510 5511 5513 5515 5517 5518 5520 5522 5524 5526 5527 5528 5529 5530 5530 5530 5530 5530 5530 5529 5528 5528 5528
5393 5396 5405 5417 5426 5424 5424 5429 5434 5438 5448 5463 5476 5483 5484 5483 5484 5485 5487 5492 5494 5496 5498 5499 5502 5504 5506 5508 5510 5512 5514 5516 5517 5518 5520 5521 5522 5521 5521 5520 5519 5519 5518 5518
5379 5384 5391 5400 5406 5408 5413 5420 5425 5427 5438 5447 5461 5465 5468 5466 5467 5470 5472 5476 5479 5481 5483 5485 5488 5491 5493 5495 5497 5500 5502 5504 5505 5508 5510 5511 5511 5510 5510 5509 5509 5509 5508 5508
5365 5369 5375 5382 5393 5396 5399 5408 5414 5419 5426 5433 5441 5447 5448 5449 5451 5454 5457 5460 5464 5466 5468 5471 5473 5476 5479 5482 5484 5487 5490 5491 5494 5496 5497 5498 5498 5498 5499 5499 5499 5498 5498 5497
5353 5356 5363 5377 5383 5384 5391 5398 5403 5407 5412 5420 5426 5429 5426 5429 5433 5438 5442 5445 5448 5451 5454 5457 5460 5464 5466 5469 5472 5475 5477 5479 5481 5483 5484 5485 5486 5486 5487 5487 5487 5487 5487 5487
5343 5346 5352 5362 5366 5366 5387 5386 5390 5396 5397 5399 5402 5406 5409 5414 5419 5423 5427 5430 5435 5437 5441 5444 5448 5450 5452 5455 5458 5462 5464 5467 5469 5470 5471 5472 5473 5474 5474 5475 5476 5476 5477 5477
5339 5339 5344 5352 5360 5371 5375 5371 5373 5378 5383 5381 5385 5391 5395 5400 5409 5415 5414 5415 5419 5423 5427 5431 5435 5437 5440 5442 5445 5449 5452 5454 5457 5458 5459 5460 5461 5462 5463 5464 5465 5465 5465 5465
5330 5332 5337 5342 5347 5353 5358 5355 5359 5367 5372 5367 5368 5374 5380 5387 5399 5406 5401 5402 5406 5410 5414 5418 5422 5425 5429 5431 5433 5437 5440 5442 5443 5444 5445 5446 5448 5449 5451 5452 5453 5453 5453 5454
5320 5320 5324 5332 5337 5345 5335 5339 5351 5356 5355 5352 5355 5360 5365 5372 5379 5382 5384 5388 5392 5397 5401 5405 5410 5414 5416 5419 5422 5425 5427 5428 5429 5431 5432 5433 5435 5436 5438 5439 5440 5440 5441 5441
5309 5313 5315 5322 5327 5328 5323 5329 5331 5331 5333 5337 5343 5347 5351 5355 5358 5363 5368 5373 5378 5383 5387 5392 5397 5400 5402 5405 5408 5411 5413 5414 5416 5418 5419 5420 5422 5422 5423 5425 5426 5427 5428 5428
5299 5299 5305 5309 5310 5309 5309 5311 5314 5317 5321 5325 5330 5334 5338 5341 5344 5349 5354 5359 5364 5368 5373 5377 5381 5385 5387 5390 5393 5396 5398 5400 5403 5405 5406 5407 5408 5409 5410 5411 5413 5413 5414 5415
5288 5289 5293 5296 5299 5298 5299 5302 5304 5307 5310 5314 5318 5322 5327 5329 5332 5335 5340 5345 5349 5353 5357 5361 5365 5369 5371 5375 5378 5381 5383 5386 5389 5391 5392 5393 5394 5395 5396 5397 5398 5399 5400 5401
5276 5279 5282 5285 5287 5291 5294 5292 5294 5297 5301 5305 5308 5311 5315 5318 5321 5324 5328 5332 5335 5339 5343 5346 5350 5353 5355 5359 5362 5365 5368 5372 5374 5376 5377 5378 5379 5381 5382 5382 5383 5384 5386 5386
5263 5266 5273 5279 5279 5280 5283 5283 5284 5288 5292 5295 5298 5301 5303 5307 5310 5313 5316 5319 5323 5326 5329 5332 5334 5337 5340 5343 5346 5349 5352 5356 5359 5360 5362 5364 5365 5366 5367 5368 5368 5368 5370 5371